Location: Sungai Buloh
(3.1000°N, 113.0000°E)
Time: 16:53:59
(UTC+00:00)

Ariane 42L R/B - Pass Details

Date: 12 January 2026
Orbit: 632 x 17028 km, 7.3° (Epoch: 11 February)

Event Time Altitude Azimuth Distance (km) Brightness Sun altitude
Exits shadow 21:10:03 21° 251° (WSW) 2,755 5.4 -21.2°
Maximum altitude 21:14:58 59° 177° (S) 984 3.6 -20.1°
Drops below altitude 10° 21:18:53 10° 96° (E) 2,036 6.3 -19.2°
Sets 21:20:44 0° 91° (E) 2,901 7.3 -18.7°
